Torna al catalogo

HULIANWANG DIGUI-130

AttivoComunicazioniLEO
NORAD 67238·PAYLOAD·🇨🇳 China

Lanciato Dec 25, 2025 da Wenchang Space Launch Site

Loading…

Prossimi Passaggi (prossime 24 ore)

TLE

AggiornatoSource: Space-Track

Epoca: Sep 14, 2026, 02:34 UTC

1 67238U 25311C   26257.10752810 -.00000075  00000-0  10491-3 0  9995
2 67238  50.0048 157.1068 0000291 300.2503  59.8340 13.29326882 35166

Traccia HULIANWANG DIGUI-130 in tempo reale con AllMySat

Download on the App Store